Location: Ballingbuur
(53.0000°N, 5.7667°E)
Time: 07:00:48
(UTC+00:00)

FALCON 9 DEB - Pass Details

Date: 29 November 2020
Orbit: 376 x 396 km, 53.0° (Epoch: 23 January)

Event Time Altitude Azimuth Distance (km) Brightness Sun altitude
Exits shadow 05:21:27 22° 209° (SSW) 927 4.6 -17.6°
Maximum altitude 05:23:04 38° 153° (SSE) 619 4.2 -17.4°
Drops below altitude 10° 05:26:07 10° 84° (E) 1,451 6.9 -16.9°
Sets 05:28:16 0° 76° (ENE) 2,316 7.9 -16.6°
